TimeEDT,TemperatureF,Dew PointF,Humidity,Sea Level PressureIn,VisibilityMPH,Wind Direction,Wind SpeedMPH,Gust SpeedMPH,PrecipitationIn,Events,Conditions,WindDirDegrees,DateUTC
12:15 AM,55.4,51.8,88,30.11,10.0,Calm,Calm,-,N/A,,Partly Cloudy,0,2013-04-03 04:15:00
12:35 AM,55.4,51.8,88,30.11,10.0,Calm,Calm,-,N/A,,Partly Cloudy,0,2013-04-03 04:35:00
12:55 AM,55.4,51.8,88,30.12,10.0,Calm,Calm,-,N/A,,Clear,0,2013-04-03 04:55:00
1:15 AM,55.4,51.8,88,30.13,10.0,Calm,Calm,-,N/A,,Clear,0,2013-04-03 05:15:00
1:35 AM,55.4,51.8,88,30.12,10.0,Calm,Calm,-,N/A,,Clear,0,2013-04-03 05:35:00
1:55 AM,51.8,50.0,94,30.11,10.0,Calm,Calm,-,N/A,,Clear,0,2013-04-03 05:55:00
2:15 AM,51.8,48.2,88,30.11,10.0,Calm,Calm,-,N/A,,Clear,0,2013-04-03 06:15:00
2:35 AM,50.0,48.2,94,30.10,5.0,Calm,Calm,-,N/A,,Clear,0,2013-04-03 06:35:00
2:55 AM,50.0,48.2,94,30.10,8.0,Calm,Calm,-,N/A,,Clear,0,2013-04-03 06:55:00
3:15 AM,48.2,48.2,100,30.10,7.0,Calm,Calm,-,N/A,,Clear,0,2013-04-03 07:15:00
3:35 AM,48.2,48.2,100,30.10,8.0,Calm,Calm,-,N/A,,Clear,0,2013-04-03 07:35:00
3:55 AM,48.2,46.4,93,30.10,9.0,Calm,Calm,-,N/A,,Clear,0,2013-04-03 07:55:00
4:15 AM,48.2,46.4,93,30.10,9.0,Calm,Calm,-,N/A,,Clear,0,2013-04-03 08:15:00
4:35 AM,46.4,46.4,100,30.10,8.0,Calm,Calm,-,N/A,,Clear,0,2013-04-03 08:35:00
4:55 AM,46.4,44.6,93,30.10,5.0,Calm,Calm,-,N/A,,Clear,0,2013-04-03 08:55:00
5:15 AM,46.4,44.6,93,30.10,7.0,Calm,Calm,-,N/A,,Clear,0,2013-04-03 09:15:00
5:35 AM,48.2,46.4,93,30.10,10.0,Calm,Calm,-,N/A,,Clear,0,2013-04-03 09:35:00
5:55 AM,48.2,44.6,87,30.11,10.0,Calm,Calm,-,N/A,,Clear,0,2013-04-03 09:55:00
6:15 AM,46.4,42.8,87,30.12,10.0,Calm,Calm,-,N/A,,Clear,0,2013-04-03 10:15:00
6:35 AM,48.2,42.8,82,30.13,10.0,NNW,3.5,-,N/A,,Clear,340,2013-04-03 10:35:00
6:55 AM,48.2,42.8,82,30.15,10.0,Calm,Calm,-,N/A,,Clear,0,2013-04-03 10:55:00
7:15 AM,48.2,42.8,82,30.16,10.0,Calm,Calm,-,N/A,,Clear,0,2013-04-03 11:15:00
7:35 AM,48.2,41.0,76,30.17,10.0,NNE,5.8,-,N/A,,Clear,20,2013-04-03 11:35:00
7:55 AM,50.0,39.2,66,30.18,10.0,NNE,3.5,-,N/A,,Clear,30,2013-04-03 11:55:00
8:15 AM,50.0,39.2,66,30.18,10.0,NNE,5.8,-,N/A,,Clear,30,2013-04-03 12:15:00
8:35 AM,51.8,37.4,58,30.17,10.0,NNE,9.2,-,N/A,,Clear,30,2013-04-03 12:35:00
8:55 AM,53.6,35.6,51,30.18,10.0,NE,10.4,-,N/A,,Clear,40,2013-04-03 12:55:00
9:15 AM,53.6,35.6,51,30.19,10.0,NNE,13.8,18.4,N/A,,Clear,30,2013-04-03 13:15:00
9:35 AM,53.6,35.6,51,30.19,10.0,NE,16.1,19.6,N/A,,Clear,40,2013-04-03 13:35:00
10:15 AM,55.4,37.4,51,30.20,10.0,NNE,10.4,-,N/A,,Clear,30,2013-04-03 14:15:00
10:35 AM,57.2,37.4,48,30.21,10.0,NE,12.7,-,N/A,,Clear,50,2013-04-03 14:35:00
10:55 AM,57.2,37.4,48,30.21,10.0,NE,12.7,-,N/A,,Clear,40,2013-04-03 14:55:00
11:15 AM,57.2,37.4,48,30.22,10.0,NNE,11.5,16.1,N/A,,Clear,20,2013-04-03 15:15:00
11:35 AM,59.0,37.4,45,30.22,10.0,NE,8.1,-,N/A,,Clear,40,2013-04-03 15:35:00
12:15 PM,60.8,37.4,42,30.21,10.0,ENE,11.5,-,N/A,,Clear,60,2013-04-03 16:15:00
12:35 PM,62.6,37.4,39,30.20,10.0,NE,12.7,-,N/A,,Partly Cloudy,40,2013-04-03 16:35:00
12:55 PM,62.6,37.4,39,30.19,10.0,ENE,9.2,-,N/A,,Clear,70,2013-04-03 16:55:00
1:15 PM,62.6,37.4,39,30.18,10.0,NE,11.5,-,N/A,,Clear,50,2013-04-03 17:15:00
1:35 PM,62.6,35.6,37,30.18,10.0,NE,11.5,18.4,N/A,,Clear,50,2013-04-03 17:35:00
1:55 PM,62.6,35.6,37,30.18,10.0,NE,9.2,16.1,N/A,,Clear,40,2013-04-03 17:55:00
2:15 PM,62.6,35.6,37,30.18,10.0,ENE,9.2,-,N/A,,Clear,70,2013-04-03 18:15:00
2:35 PM,64.4,33.8,32,30.18,10.0,ENE,10.4,-,N/A,,Clear,60,2013-04-03 18:35:00
2:55 PM,64.4,35.6,34,30.17,10.0,NE,11.5,17.3,N/A,,Clear,40,2013-04-03 18:55:00
3:15 PM,64.4,35.6,34,30.17,10.0,NE,10.4,-,N/A,,Clear,50,2013-04-03 19:15:00
3:55 PM,64.4,33.8,32,30.17,10.0,NE,8.1,-,N/A,,Clear,40,2013-04-03 19:55:00
4:15 PM,64.4,35.6,34,30.17,10.0,NNE,8.1,-,N/A,,Clear,20,2013-04-03 20:15:00
4:35 PM,64.4,35.6,34,30.17,10.0,ENE,9.2,-,N/A,,Partly Cloudy,70,2013-04-03 20:35:00
4:55 PM,64.4,35.6,34,30.17,10.0,ENE,6.9,-,N/A,,Partly Cloudy,70,2013-04-03 20:55:00
5:15 PM,64.4,33.8,32,30.17,10.0,ENE,8.1,-,N/A,,Clear,70,2013-04-03 21:15:00
5:35 PM,64.4,33.8,32,30.17,10.0,NE,5.8,-,N/A,,Clear,40,2013-04-03 21:35:00
5:55 PM,62.6,35.6,37,30.16,10.0,ENE,8.1,-,N/A,,Scattered Clouds,60,2013-04-03 21:55:00
6:15 PM,62.6,33.8,34,30.16,10.0,ENE,6.9,-,N/A,,Scattered Clouds,60,2013-04-03 22:15:00
6:55 PM,62.6,35.6,37,30.18,10.0,ENE,5.8,-,N/A,,Scattered Clouds,70,2013-04-03 22:55:00
7:15 PM,60.8,35.6,39,30.18,10.0,ENE,6.9,-,N/A,,Scattered Clouds,70,2013-04-03 23:15:00
7:35 PM,60.8,35.6,39,30.18,10.0,ENE,5.8,-,N/A,,Scattered Clouds,70,2013-04-03 23:35:00
8:15 PM,60.8,35.6,39,30.18,10.0,ENE,5.8,-,N/A,,Partly Cloudy,70,2013-04-04 00:15:00
8:35 PM,59.0,37.4,45,30.19,10.0,ENE,3.5,-,N/A,,Clear,70,2013-04-04 00:35:00
8:55 PM,59.0,35.6,42,30.19,9.0,ENE,6.9,-,N/A,,Clear,70,2013-04-04 00:55:00
9:15 PM,59.0,35.6,42,30.18,10.0,ENE,8.1,-,N/A,,Clear,70,2013-04-04 01:15:00
9:35 PM,59.0,35.6,42,30.20,10.0,ENE,6.9,-,N/A,,Clear,60,2013-04-04 01:35:00
9:55 PM,57.2,35.6,44,30.20,10.0,NE,8.1,-,N/A,,Mostly Cloudy,50,2013-04-04 01:55:00
10:15 PM,57.2,35.6,44,30.21,10.0,NE,6.9,-,N/A,,Scattered Clouds,50,2013-04-04 02:15:00
10:35 PM,57.2,35.6,44,30.24,10.0,NE,9.2,-,N/A,,Mostly Cloudy,40,2013-04-04 02:35:00
10:55 PM,57.2,35.6,44,30.25,9.0,NE,5.8,-,N/A,Rain,Light Rain,40,2013-04-04 02:55:00
11:15 PM,53.6,39.2,58,30.24,10.0,ENE,6.9,-,N/A,,Light Drizzle,60,2013-04-04 03:15:00
11:35 PM,53.6,41.0,62,30.24,10.0,ENE,4.6,-,N/A,,Light Drizzle,60,2013-04-04 03:35:00
11:55 PM,53.6,41.0,62,30.23,10.0,ENE,5.8,-,N/A,,Light Drizzle,60,2013-04-04 03:55:00